Time,TemperatureF,DewpointF,PressureIn,WindDirection,WindDirectionDegrees,WindSpeedMPH,WindSpeedGustMPH,Humidity,HourlyPrecipIn,Conditions,Clouds,dailyrainin,SoftwareType,DateUTC
2013-03-30 00:01:00,36.3,19.9,30.17,SSW,194,0.0,3.0,51,0.00,,---,0.00,VWS V13.01,2013-03-30 05:01:00,
2013-03-30 00:06:00,36.2,19.8,30.17,South,187,0.0,2.0,51,0.00,,---,0.00,VWS V13.01,2013-03-30 05:06:00,
2013-03-30 00:11:00,36.2,19.8,30.17,SSW,194,0.0,4.0,51,0.00,,---,0.00,VWS V13.01,2013-03-30 05:11:00,
2013-03-30 00:16:00,36.2,19.8,30.17,SW,232,0.0,4.0,51,0.00,,---,0.00,VWS V13.01,2013-03-30 05:16:00,
2013-03-30 00:21:00,36.0,19.6,30.17,SW,232,1.0,4.0,51,0.00,,---,0.00,VWS V13.01,2013-03-30 05:21:00,
2013-03-30 00:26:00,35.9,20.0,30.17,WSW,251,0.0,4.0,52,0.00,,---,0.00,VWS V13.01,2013-03-30 05:26:00,
2013-03-30 00:31:00,35.8,19.9,30.17,SW,223,0.0,4.0,52,0.00,,---,0.00,VWS V13.01,2013-03-30 05:31:00,
2013-03-30 00:36:00,35.8,19.5,30.17,WSW,244,0.0,3.0,51,0.00,,---,0.00,VWS V13.01,2013-03-30 05:36:00,
2013-03-30 00:41:00,35.9,20.0,30.17,West,259,1.0,4.0,52,0.00,,---,0.00,VWS V13.01,2013-03-30 05:41:00,
2013-03-30 00:46:00,35.9,20.0,30.17,WSW,239,0.0,4.0,52,0.00,,---,0.00,VWS V13.01,2013-03-30 05:46:00,
2013-03-30 00:51:00,36.0,20.1,30.17,SW,235,2.0,4.0,52,0.00,,---,0.00,VWS V13.01,2013-03-30 05:51:00,
2013-03-30 00:56:00,36.0,20.1,30.17,South,186,3.0,4.0,52,0.00,,---,0.00,VWS V13.01,2013-03-30 05:56:00,
2013-03-30 01:01:00,36.0,19.6,30.17,West,267,2.0,4.0,51,0.00,,---,0.00,VWS V13.01,2013-03-30 06:01:00,
2013-03-30 01:06:00,36.0,20.1,30.17,South,190,1.0,3.0,52,0.00,,---,0.00,VWS V13.01,2013-03-30 06:06:00,
2013-03-30 01:11:00,36.0,20.1,30.17,SSW,192,0.0,3.0,52,0.00,,---,0.00,VWS V13.01,2013-03-30 06:11:00,
2013-03-30 01:17:00,35.9,19.5,30.17,SSW,192,0.0,4.0,51,0.00,,---,0.00,VWS V13.01,2013-03-30 06:17:00,
2013-03-30 01:21:00,35.9,20.0,30.17,SSW,205,1.0,4.0,52,0.00,,---,0.00,VWS V13.01,2013-03-30 06:21:00,
2013-03-30 01:27:00,35.8,19.5,30.17,SSW,200,1.0,4.0,51,0.00,,---,0.00,VWS V13.01,2013-03-30 06:27:00,
2013-03-30 01:32:00,35.8,19.9,30.16,SSW,204,0.0,4.0,52,0.00,,---,0.00,VWS V13.01,2013-03-30 06:32:00,
2013-03-30 01:37:00,35.7,19.8,30.16,South,182,2.0,3.0,52,0.00,,---,0.00,VWS V13.01,2013-03-30 06:37:00,
2013-03-30 01:42:00,35.7,19.8,30.16,South,190,2.0,3.0,52,0.00,,---,0.00,VWS V13.01,2013-03-30 06:42:00,
2013-03-30 01:47:00,35.7,19.8,30.16,SSW,196,2.0,3.0,52,0.00,,---,0.00,VWS V13.01,2013-03-30 06:47:00,
2013-03-30 01:52:00,35.6,19.7,30.16,South,180,2.0,3.0,52,0.00,,---,0.00,VWS V13.01,2013-03-30 06:52:00,
2013-03-30 01:57:00,35.5,19.6,30.16,South,187,0.0,4.0,52,0.00,,---,0.00,VWS V13.01,2013-03-30 06:57:00,
2013-03-30 02:02:00,35.4,19.5,30.16,SSW,213,2.0,3.0,52,0.00,,---,0.00,VWS V13.01,2013-03-30 07:02:00,
2013-03-30 02:07:00,35.3,19.5,30.16,South,180,1.0,5.0,52,0.00,,---,0.00,VWS V13.01,2013-03-30 07:07:00,
2013-03-30 02:12:00,35.2,19.8,30.15,South,190,0.0,5.0,53,0.00,,---,0.00,VWS V13.01,2013-03-30 07:12:00,
2013-03-30 02:17:00,35.2,19.8,30.15,SSW,202,2.0,5.0,53,0.00,,---,0.00,VWS V13.01,2013-03-30 07:17:00,
2013-03-30 02:22:00,35.2,19.4,30.15,SSW,193,1.0,5.0,52,0.00,,---,0.00,VWS V13.01,2013-03-30 07:22:00,
2013-03-30 02:27:00,35.2,19.4,30.15,SW,215,5.0,5.0,52,0.00,,---,0.00,VWS V13.01,2013-03-30 07:27:00,
2013-03-30 02:32:00,35.2,19.8,30.14,South,176,2.0,2.0,53,0.00,,---,0.00,VWS V13.01,2013-03-30 07:32:00,
2013-03-30 02:37:00,35.1,19.7,30.14,South,186,1.0,5.0,53,0.00,,---,0.00,VWS V13.01,2013-03-30 07:37:00,
2013-03-30 02:42:00,34.9,19.5,30.14,South,190,2.0,5.0,53,0.00,,---,0.00,VWS V13.01,2013-03-30 07:42:00,
2013-03-30 02:47:00,34.8,19.4,30.14,South,181,2.0,5.0,53,0.00,,---,0.00,VWS V13.01,2013-03-30 07:47:00,
2013-03-30 02:52:00,34.8,19.4,30.14,South,176,1.0,5.0,53,0.00,,---,0.00,VWS V13.01,2013-03-30 07:52:00,
2013-03-30 02:58:00,34.7,19.3,30.13,South,169,2.0,5.0,53,0.00,,---,0.00,VWS V13.01,2013-03-30 07:58:00,
2013-03-30 03:03:00,34.6,19.7,30.13,South,189,1.0,4.0,54,0.00,,---,0.00,VWS V13.01,2013-03-30 08:03:00,
2013-03-30 03:08:00,34.6,19.7,30.13,SSW,201,1.0,4.0,54,0.00,,---,0.00,VWS V13.01,2013-03-30 08:08:00,
2013-03-30 03:13:00,34.5,19.6,30.12,South,182,0.0,4.0,54,0.00,,---,0.00,VWS V13.01,2013-03-30 08:13:00,
2013-03-30 03:18:00,34.5,19.6,30.12,SSW,200,2.0,4.0,54,0.00,,---,0.00,VWS V13.01,2013-03-30 08:18:00,
2013-03-30 03:23:00,34.6,19.7,30.12,SSW,194,2.0,5.0,54,0.00,,---,0.00,VWS V13.01,2013-03-30 08:23:00,
2013-03-30 03:28:00,34.7,19.8,30.11,South,175,1.0,5.0,54,0.00,,---,0.00,VWS V13.01,2013-03-30 08:28:00,
2013-03-30 03:33:00,34.7,20.2,30.11,SSW,192,0.0,2.0,55,0.00,,---,0.00,VWS V13.01,2013-03-30 08:33:00,
2013-03-30 03:38:00,34.7,19.8,30.11,SSW,192,2.0,5.0,54,0.00,,---,0.00,VWS V13.01,2013-03-30 08:38:00,
2013-03-30 03:43:00,34.7,20.2,30.11,SSW,211,0.0,5.0,55,0.00,,---,0.00,VWS V13.01,2013-03-30 08:43:00,
2013-03-30 03:48:00,34.7,20.2,30.11,SSW,199,3.0,5.0,55,0.00,,---,0.00,VWS V13.01,2013-03-30 08:48:00,
2013-03-30 03:53:00,34.6,19.7,30.11,South,188,0.0,5.0,54,0.00,,---,0.00,VWS V13.01,2013-03-30 08:53:00,
2013-03-30 03:58:00,34.5,20.0,30.10,SSW,204,3.0,6.0,55,0.00,,---,0.00,VWS V13.01,2013-03-30 08:58:00,
2013-03-30 04:03:00,34.4,19.9,30.10,SSW,196,0.0,2.0,55,0.00,,---,0.00,VWS V13.01,2013-03-30 09:03:00,
2013-03-30 04:08:00,34.4,19.9,30.10,SSW,193,1.0,6.0,55,0.00,,---,0.00,VWS V13.01,2013-03-30 09:08:00,
2013-03-30 04:13:00,34.4,19.9,30.10,SW,222,1.0,6.0,55,0.00,,---,0.00,VWS V13.01,2013-03-30 09:13:00,
2013-03-30 04:18:00,34.4,19.9,30.10,SSW,194,0.0,6.0,55,0.00,,---,0.00,VWS V13.01,2013-03-30 09:18:00,
2013-03-30 04:23:00,34.3,20.2,30.09,South,186,0.0,6.0,56,0.00,,---,0.00,VWS V13.01,2013-03-30 09:23:00,
2013-03-30 04:28:00,34.3,20.2,30.09,SSW,194,0.0,6.0,56,0.00,,---,0.00,VWS V13.01,2013-03-30 09:28:00,
2013-03-30 04:33:00,34.3,20.2,30.09,South,182,2.0,4.0,56,0.00,,---,0.00,VWS V13.01,2013-03-30 09:33:00,
2013-03-30 04:34:00,34.3,20.2,30.09,South,182,3.0,4.0,56,0.00,,---,0.00,VWS V13.01,2013-03-30 09:34:00,
2013-03-30 04:39:00,34.3,20.2,30.09,SSW,195,3.0,5.0,56,0.00,,---,0.00,VWS V13.01,2013-03-30 09:39:00,
2013-03-30 04:44:00,34.3,20.2,30.08,SSW,202,4.0,5.0,56,0.00,,---,0.00,VWS V13.01,2013-03-30 09:44:00,
2013-03-30 04:49:00,34.3,20.2,30.08,SSW,202,4.0,5.0,56,0.00,,---,0.00,VWS V13.01,2013-03-30 09:49:00,
2013-03-30 04:54:00,34.4,20.3,30.08,SSW,195,1.0,5.0,56,0.00,,---,0.00,VWS V13.01,2013-03-30 09:54:00,
2013-03-30 04:59:00,34.4,20.3,30.08,SSW,193,1.0,5.0,56,0.00,,---,0.00,VWS V13.01,2013-03-30 09:59:00,
2013-03-30 05:04:00,34.4,20.3,30.07,South,178,0.0,3.0,56,0.00,,---,0.00,VWS V13.01,2013-03-30 10:04:00,
2013-03-30 05:09:00,34.4,20.3,30.07,SSE,168,0.0,4.0,56,0.00,,---,0.00,VWS V13.01,2013-03-30 10:09:00,
2013-03-30 05:14:00,34.4,20.3,30.07,SSW,197,0.0,4.0,56,0.00,,---,0.00,VWS V13.01,2013-03-30 10:14:00,
2013-03-30 05:19:00,34.4,20.3,30.07,SSW,194,3.0,5.0,56,0.00,,---,0.00,VWS V13.01,2013-03-30 10:19:00,
2013-03-30 05:24:00,34.4,20.3,30.07,South,190,1.0,5.0,56,0.00,,---,0.00,VWS V13.01,2013-03-30 10:24:00,
2013-03-30 05:29:00,34.4,20.3,30.06,SSW,207,3.0,5.0,56,0.00,,---,0.00,VWS V13.01,2013-03-30 10:29:00,
2013-03-30 05:34:00,34.4,20.8,30.06,SSW,203,3.0,4.0,57,0.00,,---,0.00,VWS V13.01,2013-03-30 10:34:00,
2013-03-30 05:39:00,34.4,20.3,30.06,SSW,209,2.0,6.0,56,0.00,,---,0.00,VWS V13.01,2013-03-30 10:39:00,
2013-03-30 05:44:00,34.4,20.8,30.06,South,181,2.0,6.0,57,0.00,,---,0.00,VWS V13.01,2013-03-30 10:44:00,
2013-03-30 05:49:00,34.4,20.8,30.06,SSW,207,2.0,6.0,57,0.00,,---,0.00,VWS V13.01,2013-03-30 10:49:00,
2013-03-30 05:54:00,34.4,20.8,30.05,SSW,204,3.0,6.0,57,0.00,,---,0.00,VWS V13.01,2013-03-30 10:54:00,
2013-03-30 05:59:00,34.4,21.2,30.06,SSW,196,1.0,6.0,58,0.00,,---,0.00,VWS V13.01,2013-03-30 10:59:00,
2013-03-30 06:04:00,34.4,21.2,30.05,South,186,1.0,2.0,58,0.00,,---,0.00,VWS V13.01,2013-03-30 11:04:00,
2013-03-30 06:09:00,34.4,21.2,30.05,South,187,2.0,5.0,58,0.00,,---,0.00,VWS V13.01,2013-03-30 11:09:00,
2013-03-30 06:14:00,34.4,21.2,30.05,South,182,3.0,6.0,58,0.00,,---,0.00,VWS V13.01,2013-03-30 11:14:00,
2013-03-30 06:19:00,34.6,21.4,30.05,SSW,209,7.0,7.0,58,0.00,,---,0.00,VWS V13.01,2013-03-30 11:19:00,
2013-03-30 06:24:00,34.8,21.5,30.05,SSW,194,4.0,9.0,58,0.00,,---,0.00,VWS V13.01,2013-03-30 11:24:00,
2013-03-30 06:29:00,35.0,21.7,30.05,South,170,8.0,9.0,58,0.00,,---,0.00,VWS V13.01,2013-03-30 11:29:00,
2013-03-30 06:34:00,35.2,21.9,30.05,South,179,0.0,8.0,58,0.00,,---,0.00,VWS V13.01,2013-03-30 11:34:00,
2013-03-30 06:39:00,35.3,22.0,30.05,NW,316,0.0,8.0,58,0.00,,---,0.00,VWS V13.01,2013-03-30 11:39:00,
2013-03-30 06:44:00,35.4,22.1,30.06,SW,219,2.0,8.0,58,0.00,,---,0.00,VWS V13.01,2013-03-30 11:44:00,
2013-03-30 06:49:00,35.4,22.5,30.06,South,172,3.0,8.0,59,0.00,,---,0.00,VWS V13.01,2013-03-30 11:49:00,
2013-03-30 06:54:00,35.3,23.2,30.06,SSW,213,0.0,8.0,61,0.00,,---,0.00,VWS V13.01,2013-03-30 11:54:00,
2013-03-30 06:59:00,35.3,24.0,30.06,SW,229,2.0,8.0,63,0.00,,---,0.00,VWS V13.01,2013-03-30 11:59:00,
2013-03-30 07:04:00,35.2,25.0,30.06,SSW,195,2.0,2.0,66,0.00,,---,0.00,VWS V13.01,2013-03-30 12:04:00,
2013-03-30 07:09:00,35.1,25.6,30.06,SSW,200,2.0,3.0,68,0.00,,---,0.00,VWS V13.01,2013-03-30 12:09:00,
2013-03-30 07:14:00,35.0,26.2,30.06,South,181,0.0,3.0,70,0.00,,---,0.00,VWS V13.01,2013-03-30 12:14:00,
2013-03-30 07:19:00,35.0,26.9,30.06,South,187,0.0,3.0,72,0.00,,---,0.00,VWS V13.01,2013-03-30 12:19:00,
2013-03-30 07:24:00,34.8,27.7,30.05,SSW,196,0.0,3.0,75,0.01,,---,0.01,VWS V13.01,2013-03-30 12:24:00,
2013-03-30 07:29:00,34.7,28.2,30.05,SSW,203,1.0,3.0,77,0.01,,---,0.01,VWS V13.01,2013-03-30 12:29:00,
2013-03-30 07:34:00,34.5,28.7,30.05,SSW,203,0.0,2.0,79,0.02,,---,0.02,VWS V13.01,2013-03-30 12:34:00,
2013-03-30 07:39:00,34.4,28.9,30.04,SSW,196,0.0,3.0,80,0.02,,---,0.02,VWS V13.01,2013-03-30 12:39:00,
2013-03-30 07:44:00,34.4,29.5,30.04,South,190,1.0,6.0,82,0.02,,---,0.02,VWS V13.01,2013-03-30 12:44:00,
2013-03-30 07:49:00,34.4,29.5,30.04,SSW,193,1.0,6.0,82,0.03,,---,0.03,VWS V13.01,2013-03-30 12:49:00,
2013-03-30 07:54:00,34.4,29.8,30.04,SSW,193,1.0,6.0,83,0.03,,---,0.03,VWS V13.01,2013-03-30 12:54:00,
2013-03-30 07:59:00,34.4,30.1,30.03,SSW,200,0.0,6.0,84,0.04,,---,0.04,VWS V13.01,2013-03-30 12:59:00,
2013-03-30 08:04:00,34.4,30.4,30.03,SSW,197,0.0,2.0,85,0.04,,---,0.04,VWS V13.01,2013-03-30 13:04:00,
2013-03-30 08:09:00,34.4,30.4,30.02,SSW,209,2.0,4.0,85,0.05,,---,0.05,VWS V13.01,2013-03-30 13:09:00,
2013-03-30 08:14:00,34.4,30.4,30.02,South,188,4.0,6.0,85,0.05,,---,0.05,VWS V13.01,2013-03-30 13:14:00,
2013-03-30 08:19:00,34.6,30.9,30.01,South,186,1.0,6.0,86,0.05,,---,0.05,VWS V13.01,2013-03-30 13:19:00,
2013-03-30 08:24:00,34.6,30.9,30.01,South,188,1.0,6.0,86,0.06,,---,0.06,VWS V13.01,2013-03-30 13:24:00,
2013-03-30 08:29:00,34.6,30.9,30.00,SSE,163,4.0,6.0,86,0.06,,---,0.06,VWS V13.01,2013-03-30 13:29:00,
2013-03-30 08:35:00,34.7,31.2,30.00,South,184,1.0,4.0,87,0.06,,---,0.07,VWS V13.01,2013-03-30 13:35:00,
2013-03-30 08:40:00,34.8,31.3,30.00,South,180,0.0,5.0,87,0.06,,---,0.07,VWS V13.01,2013-03-30 13:40:00,
2013-03-30 08:45:00,34.8,31.3,29.99,SSE,165,2.0,5.0,87,0.06,,---,0.07,VWS V13.01,2013-03-30 13:45:00,
2013-03-30 08:50:00,34.8,31.3,29.98,SSE,165,2.0,5.0,87,0.07,,---,0.08,VWS V13.01,2013-03-30 13:50:00,
2013-03-30 08:55:00,34.8,31.3,29.98,SSE,164,5.0,5.0,87,0.07,,---,0.08,VWS V13.01,2013-03-30 13:55:00,
2013-03-30 09:00:00,34.8,31.3,29.98,SSE,160,3.0,7.0,87,0.07,,---,0.09,VWS V13.01,2013-03-30 14:00:00,
2013-03-30 09:05:00,35.0,31.5,29.97,SSW,212,3.0,6.0,87,0.05,,---,0.09,VWS V13.01,2013-03-30 14:05:00,
2013-03-30 09:10:00,35.1,31.6,29.97,South,172,0.0,6.0,87,0.05,,---,0.09,VWS V13.01,2013-03-30 14:10:00,
2013-03-30 09:15:00,35.2,32.0,29.97,SW,219,1.0,6.0,88,0.05,,---,0.10,VWS V13.01,2013-03-30 14:15:00,
2013-03-30 09:20:00,35.3,32.1,29.97,SSW,200,2.0,6.0,88,0.06,,---,0.10,VWS V13.01,2013-03-30 14:20:00,
2013-03-30 09:25:00,35.3,32.1,29.97,South,173,3.0,6.0,88,0.06,,---,0.10,VWS V13.01,2013-03-30 14:25:00,
2013-03-30 09:30:00,35.4,32.2,29.97,SSW,195,5.0,6.0,88,0.06,,---,0.10,VWS V13.01,2013-03-30 14:30:00,
2013-03-30 09:35:00,35.4,31.9,29.97,SSW,207,2.0,5.0,87,0.04,,---,0.11,VWS V13.01,2013-03-30 14:35:00,
2013-03-30 09:40:00,35.4,31.9,29.97,SSW,196,4.0,10.0,87,0.05,,---,0.11,VWS V13.01,2013-03-30 14:40:00,
2013-03-30 09:45:00,35.4,31.9,29.96,South,186,2.0,10.0,87,0.05,,---,0.11,VWS V13.01,2013-03-30 14:45:00,
2013-03-30 09:50:00,35.3,31.8,29.96,South,176,3.0,10.0,87,0.05,,---,0.11,VWS V13.01,2013-03-30 14:50:00,
2013-03-30 09:55:00,35.3,31.8,29.96,SSW,195,9.0,12.0,87,0.05,,---,0.11,VWS V13.01,2013-03-30 14:55:00,
2013-03-30 10:00:00,35.3,31.8,29.96,South,169,3.0,12.0,87,0.06,,---,0.12,VWS V13.01,2013-03-30 15:00:00,
2013-03-30 10:05:00,35.2,31.7,29.96,SSW,203,2.0,9.0,87,0.03,,---,0.12,VWS V13.01,2013-03-30 15:05:00,
2013-03-30 10:10:00,35.1,31.6,29.95,SSE,163,4.0,10.0,87,0.03,,---,0.12,VWS V13.01,2013-03-30 15:10:00,
2013-03-30 10:15:00,35.0,31.8,29.95,SSW,212,4.0,10.0,88,0.03,,---,0.12,VWS V13.01,2013-03-30 15:15:00,
2013-03-30 10:20:00,34.9,31.7,29.95,South,183,2.0,10.0,88,0.03,,---,0.12,VWS V13.01,2013-03-30 15:20:00,
2013-03-30 10:25:00,34.7,31.5,29.95,SSE,161,4.0,11.0,88,0.04,,---,0.13,VWS V13.01,2013-03-30 15:25:00,
2013-03-30 10:30:00,34.5,31.6,29.94,SSE,160,2.0,11.0,89,0.04,,---,0.13,VWS V13.01,2013-03-30 15:30:00,
2013-03-30 10:35:00,34.4,31.5,29.94,South,183,2.0,6.0,89,0.03,,---,0.13,VWS V13.01,2013-03-30 15:35:00,
2013-03-30 10:40:00,34.4,31.5,29.93,SSW,203,0.0,6.0,89,0.03,,---,0.13,VWS V13.01,2013-03-30 15:40:00,
2013-03-30 10:45:00,34.4,31.5,29.93,South,172,2.0,10.0,89,0.03,,---,0.13,VWS V13.01,2013-03-30 15:45:00,
2013-03-30 10:50:00,34.3,31.4,29.93,South,184,5.0,10.0,89,0.04,,---,0.14,VWS V13.01,2013-03-30 15:50:00,
2013-03-30 10:55:00,34.1,31.5,29.93,SSW,204,0.0,10.0,90,0.04,,---,0.14,VWS V13.01,2013-03-30 15:55:00,
2013-03-30 11:00:00,34.1,31.5,29.93,South,176,2.0,10.0,90,0.04,,---,0.14,VWS V13.01,2013-03-30 16:00:00,
2013-03-30 11:05:00,33.9,31.3,29.93,South,184,3.0,6.0,90,0.02,,---,0.14,VWS V13.01,2013-03-30 16:05:00,
2013-03-30 11:10:00,33.9,31.3,29.92,SSE,167,3.0,6.0,90,0.02,,---,0.14,VWS V13.01,2013-03-30 16:10:00,
2013-03-30 11:15:00,33.9,31.3,29.92,SSE,148,2.0,9.0,90,0.02,,---,0.14,VWS V13.01,2013-03-30 16:15:00,
2013-03-30 11:20:00,33.9,31.6,29.92,SSE,156,3.0,9.0,91,0.02,,---,0.14,VWS V13.01,2013-03-30 16:20:00,
2013-03-30 11:25:00,33.9,31.6,29.91,SSE,163,4.0,10.0,91,0.02,,---,0.15,VWS V13.01,2013-03-30 16:25:00,
2013-03-30 11:30:00,33.9,31.6,29.91,South,175,3.0,10.0,91,0.03,,---,0.15,VWS V13.01,2013-03-30 16:30:00,
2013-03-30 11:35:00,33.9,31.6,29.91,South,170,3.0,11.0,91,0.02,,---,0.15,VWS V13.01,2013-03-30 16:35:00,
2013-03-30 11:40:00,33.9,31.6,29.90,SSW,196,4.0,11.0,91,0.02,,---,0.15,VWS V13.01,2013-03-30 16:40:00,
2013-03-30 11:45:00,33.9,31.6,29.90,South,179,2.0,11.0,91,0.02,,---,0.15,VWS V13.01,2013-03-30 16:45:00,
2013-03-30 11:50:00,33.9,31.6,29.90,South,186,4.0,11.0,91,0.02,,---,0.15,VWS V13.01,2013-03-30 16:50:00,
2013-03-30 11:55:00,34.0,31.6,29.90,South,169,4.0,11.0,91,0.02,,---,0.15,VWS V13.01,2013-03-30 16:55:00,
2013-03-30 12:00:00,34.0,31.6,29.90,SSE,157,3.0,11.0,91,0.03,,---,0.16,VWS V13.01,2013-03-30 17:00:00,
2013-03-30 12:05:00,34.0,31.6,29.90,SSW,202,5.0,10.0,91,0.02,,---,0.16,VWS V13.01,2013-03-30 17:05:00,
2013-03-30 12:10:00,34.0,31.6,29.89,South,182,2.0,10.0,91,0.02,,---,0.16,VWS V13.01,2013-03-30 17:10:00,
2013-03-30 12:15:00,34.1,31.8,29.89,SSE,155,3.0,10.0,91,0.02,,---,0.16,VWS V13.01,2013-03-30 17:15:00,
2013-03-30 12:20:00,34.2,31.9,29.89,SSW,194,5.0,10.0,91,0.02,,---,0.16,VWS V13.01,2013-03-30 17:20:00,
2013-03-30 12:25:00,34.3,32.0,29.89,South,186,3.0,10.0,91,0.02,,---,0.16,VWS V13.01,2013-03-30 17:25:00,
2013-03-30 12:30:00,34.4,32.0,29.89,SSW,196,0.0,10.0,91,0.02,,---,0.16,VWS V13.01,2013-03-30 17:30:00,
2013-03-30 12:35:00,34.4,32.0,29.89,SSW,194,1.0,6.0,91,0.02,,---,0.17,VWS V13.01,2013-03-30 17:35:00,
2013-03-30 12:40:00,34.4,32.0,29.88,SSE,161,4.0,7.0,91,0.02,,---,0.17,VWS V13.01,2013-03-30 17:40:00,
2013-03-30 12:45:00,34.4,32.0,29.88,SW,218,10.0,11.0,91,0.02,,---,0.17,VWS V13.01,2013-03-30 17:45:00,
2013-03-30 12:50:00,34.4,32.0,29.88,South,182,4.0,11.0,91,0.02,,---,0.17,VWS V13.01,2013-03-30 17:50:00,
2013-03-30 12:55:00,34.4,32.0,29.88,South,188,3.0,11.0,91,0.02,,---,0.17,VWS V13.01,2013-03-30 17:55:00,
2013-03-30 13:00:00,34.4,32.0,29.88,SSW,192,9.0,11.0,91,0.03,,---,0.18,VWS V13.01,2013-03-30 18:00:00,
2013-03-30 13:05:00,34.4,32.0,29.87,SSW,198,3.0,6.0,91,0.02,,---,0.18,VWS V13.01,2013-03-30 18:05:00,
2013-03-30 13:10:00,34.4,32.0,29.87,SSE,155,4.0,9.0,91,0.02,,---,0.18,VWS V13.01,2013-03-30 18:10:00,
2013-03-30 13:15:00,34.4,32.0,29.87,South,173,4.0,11.0,91,0.02,,---,0.18,VWS V13.01,2013-03-30 18:15:00,
2013-03-30 13:21:00,34.4,32.0,29.87,SSW,194,9.0,11.0,91,0.03,,---,0.19,VWS V13.01,2013-03-30 18:21:00,
2013-03-30 13:26:00,34.4,32.0,29.87,South,184,5.0,11.0,91,0.03,,---,0.19,VWS V13.01,2013-03-30 18:26:00,
2013-03-30 13:31:00,34.4,32.0,29.86,SSW,204,4.0,11.0,91,0.03,,---,0.19,VWS V13.01,2013-03-30 18:31:00,
2013-03-30 13:35:00,34.4,32.0,29.86,SSE,150,8.0,8.0,91,0.03,,---,0.20,VWS V13.01,2013-03-30 18:35:00,
2013-03-30 13:40:00,34.4,32.0,29.86,SSW,209,2.0,10.0,91,0.04,,---,0.20,VWS V13.01,2013-03-30 18:40:00,
2013-03-30 13:46:00,34.4,32.0,29.86,SSW,196,3.0,11.0,91,0.04,,---,0.20,VWS V13.01,2013-03-30 18:46:00,
2013-03-30 13:51:00,34.4,32.0,29.86,SSW,209,3.0,11.0,91,0.04,,---,0.20,VWS V13.01,2013-03-30 18:51:00,
2013-03-30 13:56:00,34.4,32.0,29.86,SSW,207,3.0,11.0,91,0.05,,---,0.21,VWS V13.01,2013-03-30 18:56:00,
2013-03-30 14:01:00,34.4,32.0,29.86,SSW,203,2.0,11.0,91,0.05,,---,0.21,VWS V13.01,2013-03-30 19:01:00,
2013-03-30 14:06:00,34.5,32.2,29.86,SSW,192,2.0,5.0,91,0.03,,---,0.21,VWS V13.01,2013-03-30 19:06:00,
2013-03-30 14:11:00,34.5,32.2,29.85,SSW,194,1.0,9.0,91,0.03,,---,0.22,VWS V13.01,2013-03-30 19:11:00,
2013-03-30 14:17:00,34.6,32.2,29.85,South,182,3.0,9.0,91,0.04,,---,0.22,VWS V13.01,2013-03-30 19:17:00,
2013-03-30 14:22:00,34.7,32.3,29.85,SSW,207,4.0,9.0,91,0.04,,---,0.22,VWS V13.01,2013-03-30 19:22:00,
2013-03-30 14:27:00,34.7,32.3,29.85,SSW,202,2.0,9.0,91,0.04,,---,0.23,VWS V13.01,2013-03-30 19:27:00,
2013-03-30 14:32:00,34.8,32.5,29.85,SSW,202,3.0,9.0,91,0.05,,---,0.23,VWS V13.01,2013-03-30 19:32:00,
2013-03-30 14:37:00,34.9,32.5,29.84,SSW,205,2.0,6.0,91,0.04,,---,0.23,VWS V13.01,2013-03-30 19:37:00,
2013-03-30 14:42:00,34.9,32.5,29.84,South,190,0.0,6.0,91,0.04,,---,0.23,VWS V13.01,2013-03-30 19:42:00,
2013-03-30 14:47:00,35.0,32.6,29.84,WSW,246,3.0,7.0,91,0.05,,---,0.24,VWS V13.01,2013-03-30 19:47:00,
2013-03-30 14:52:00,35.1,32.7,29.84,SSW,211,2.0,7.0,91,0.05,,---,0.24,VWS V13.01,2013-03-30 19:52:00,
2013-03-30 14:57:00,35.2,32.8,29.84,South,190,3.0,7.0,91,0.05,,---,0.24,VWS V13.01,2013-03-30 19:57:00,
2013-03-30 15:02:00,35.3,32.9,29.84,SSW,203,1.0,7.0,91,0.06,,---,0.25,VWS V13.01,2013-03-30 20:02:00,
2013-03-30 15:07:00,35.3,32.9,29.84,South,181,4.0,6.0,91,0.04,,---,0.25,VWS V13.01,2013-03-30 20:07:00,
2013-03-30 15:12:00,35.4,33.0,29.84,SSW,196,5.0,9.0,91,0.04,,---,0.25,VWS V13.01,2013-03-30 20:12:00,
2013-03-30 15:17:00,35.5,33.4,29.83,SSW,206,0.0,9.0,92,0.05,,---,0.26,VWS V13.01,2013-03-30 20:17:00,
2013-03-30 15:22:00,35.6,33.5,29.83,SSW,195,2.0,9.0,92,0.05,,---,0.26,VWS V13.01,2013-03-30 20:22:00,
2013-03-30 15:27:00,35.7,33.6,29.83,South,182,3.0,9.0,92,0.05,,---,0.26,VWS V13.01,2013-03-30 20:27:00,
2013-03-30 15:32:00,35.7,33.6,29.83,WSW,252,0.0,0.0,92,0.06,,---,0.27,VWS V13.01,2013-03-30 20:32:00,
2013-03-30 15:37:00,35.8,33.7,29.83,South,183,1.0,4.0,92,0.04,,---,0.27,VWS V13.01,2013-03-30 20:37:00,
2013-03-30 15:42:00,35.9,33.8,29.83,SW,223,2.0,4.0,92,0.04,,---,0.27,VWS V13.01,2013-03-30 20:42:00,
2013-03-30 15:47:00,35.9,33.5,29.83,South,189,0.0,4.0,91,0.04,,---,0.28,VWS V13.01,2013-03-30 20:47:00,
2013-03-30 15:52:00,36.0,33.6,29.83,WSW,246,2.0,5.0,91,0.05,,---,0.28,VWS V13.01,2013-03-30 20:52:00,
2013-03-30 15:57:00,36.0,33.9,29.83,SSW,203,2.0,10.0,92,0.05,,---,0.28,VWS V13.01,2013-03-30 20:57:00,
2013-03-30 16:02:00,36.1,33.7,29.83,SW,219,2.0,3.0,91,0.05,,---,0.28,VWS V13.01,2013-03-30 21:02:00,
2013-03-30 16:07:00,36.1,33.7,29.83,WSW,258,1.0,7.0,91,0.04,,---,0.29,VWS V13.01,2013-03-30 21:07:00,
2013-03-30 16:12:00,36.1,34.0,29.83,South,181,1.0,7.0,92,0.04,,---,0.29,VWS V13.01,2013-03-30 21:12:00,
2013-03-30 16:17:00,36.1,34.0,29.83,SSW,198,2.0,7.0,92,0.04,,---,0.29,VWS V13.01,2013-03-30 21:17:00,
2013-03-30 16:23:00,36.2,34.1,29.83,WSW,252,2.0,7.0,92,0.05,,---,0.30,VWS V13.01,2013-03-30 21:23:00,
2013-03-30 16:28:00,36.3,34.2,29.83,WSW,254,0.0,7.0,92,0.05,,---,0.30,VWS V13.01,2013-03-30 21:28:00,
2013-03-30 16:33:00,36.4,34.3,29.82,SW,225,3.0,3.0,92,0.05,,---,0.30,VWS V13.01,2013-03-30 21:33:00,
2013-03-30 16:38:00,36.4,34.3,29.83,SSW,195,3.0,4.0,92,0.04,,---,0.31,VWS V13.01,2013-03-30 21:38:00,
2013-03-30 16:43:00,36.5,34.4,29.83,South,178,0.0,4.0,92,0.04,,---,0.31,VWS V13.01,2013-03-30 21:43:00,
2013-03-30 16:48:00,36.6,34.5,29.83,WSW,241,2.0,5.0,92,0.04,,---,0.31,VWS V13.01,2013-03-30 21:48:00,
2013-03-30 16:53:00,36.6,34.5,29.83,WSW,256,0.0,5.0,92,0.04,,---,0.31,VWS V13.01,2013-03-30 21:53:00,
2013-03-30 16:58:00,36.7,34.6,29.83,WSW,249,1.0,5.0,92,0.05,,---,0.32,VWS V13.01,2013-03-30 21:58:00,
2013-03-30 17:03:00,36.8,34.7,29.83,SW,227,3.0,4.0,92,0.05,,---,0.32,VWS V13.01,2013-03-30 22:03:00,
2013-03-30 17:08:00,36.8,34.7,29.82,WSW,254,1.0,5.0,92,0.04,,---,0.32,VWS V13.01,2013-03-30 22:08:00,
2013-03-30 17:13:00,36.8,34.7,29.82,SSW,200,2.0,6.0,92,0.05,,---,0.33,VWS V13.01,2013-03-30 22:13:00,
2013-03-30 17:18:00,36.8,34.7,29.82,SW,219,3.0,6.0,92,0.05,,---,0.33,VWS V13.01,2013-03-30 22:18:00,
2013-03-30 17:23:00,36.9,34.8,29.82,SSE,165,2.0,6.0,92,0.05,,---,0.33,VWS V13.01,2013-03-30 22:23:00,
2013-03-30 17:28:00,36.9,34.8,29.82,SW,226,3.0,6.0,92,0.05,,---,0.33,VWS V13.01,2013-03-30 22:28:00,
2013-03-30 17:33:00,36.9,34.8,29.82,SW,236,1.0,2.0,92,0.04,,---,0.34,VWS V13.01,2013-03-30 22:33:00,
2013-03-30 17:38:00,36.9,34.8,29.82,South,184,2.0,4.0,92,0.04,,---,0.34,VWS V13.01,2013-03-30 22:38:00,
2013-03-30 17:43:00,37.0,34.9,29.82,SSW,212,3.0,7.0,92,0.04,,---,0.34,VWS V13.01,2013-03-30 22:43:00,
2013-03-30 17:48:00,37.0,34.9,29.82,SW,219,2.0,7.0,92,0.05,,---,0.35,VWS V13.01,2013-03-30 22:48:00,
2013-03-30 17:53:00,37.0,34.9,29.82,WSW,248,3.0,7.0,92,0.05,,---,0.35,VWS V13.01,2013-03-30 22:53:00,
2013-03-30 17:58:00,37.1,35.0,29.82,West,281,7.0,7.0,92,0.05,,---,0.35,VWS V13.01,2013-03-30 22:58:00,
2013-03-30 18:03:00,37.2,35.1,29.82,WSW,251,0.0,0.0,92,0.03,,---,0.35,VWS V13.01,2013-03-30 23:03:00,
2013-03-30 18:08:00,37.1,35.0,29.82,SW,219,3.0,3.0,92,0.04,,---,0.36,VWS V13.01,2013-03-30 23:08:00,
2013-03-30 18:13:00,37.1,35.0,29.82,South,180,3.0,3.0,92,0.04,,---,0.36,VWS V13.01,2013-03-30 23:13:00,
2013-03-30 18:18:00,37.2,35.1,29.82,WSW,250,1.0,3.0,92,0.04,,---,0.36,VWS V13.01,2013-03-30 23:18:00,
2013-03-30 18:23:00,37.3,35.2,29.82,WSW,244,2.0,3.0,92,0.05,,---,0.37,VWS V13.01,2013-03-30 23:23:00,
2013-03-30 18:28:00,37.4,35.3,29.82,WSW,240,0.0,4.0,92,0.05,,---,0.37,VWS V13.01,2013-03-30 23:28:00,
2013-03-30 18:33:00,37.5,35.4,29.82,SW,227,1.0,5.0,92,0.03,,---,0.37,VWS V13.01,2013-03-30 23:33:00,
2013-03-30 18:38:00,37.5,35.4,29.82,WSW,240,1.0,5.0,92,0.03,,---,0.38,VWS V13.01,2013-03-30 23:38:00,
2013-03-30 18:43:00,37.5,35.4,29.82,West,267,0.0,5.0,92,0.04,,---,0.38,VWS V13.01,2013-03-30 23:43:00,
2013-03-30 18:48:00,37.5,35.4,29.82,WSW,240,2.0,5.0,92,0.04,,---,0.38,VWS V13.01,2013-03-30 23:48:00,
2013-03-30 18:53:00,37.6,35.5,29.82,WSW,239,0.0,5.0,92,0.04,,---,0.38,VWS V13.01,2013-03-30 23:53:00,
2013-03-30 18:58:00,37.5,35.4,29.82,SW,235,2.0,5.0,92,0.05,,---,0.39,VWS V13.01,2013-03-30 23:58:00,
2013-03-30 19:03:00,37.5,35.4,29.81,SW,235,2.0,3.0,92,0.04,,---,0.39,VWS V13.01,2013-03-31 00:03:00,
2013-03-30 19:08:00,37.5,35.4,29.81,West,260,3.0,3.0,92,0.04,,---,0.39,VWS V13.01,2013-03-31 00:08:00,
2013-03-30 19:13:00,37.6,35.5,29.81,SW,229,1.0,4.0,92,0.04,,---,0.39,VWS V13.01,2013-03-31 00:13:00,
2013-03-30 19:18:00,37.6,35.5,29.81,SW,229,0.0,4.0,92,0.04,,---,0.39,VWS V13.01,2013-03-31 00:18:00,
2013-03-30 19:23:00,37.5,35.4,29.81,West,279,0.0,4.0,92,0.05,,---,0.40,VWS V13.01,2013-03-31 00:23:00,
2013-03-30 19:28:00,37.6,35.5,29.81,West,259,6.0,6.0,92,0.05,,---,0.40,VWS V13.01,2013-03-31 00:28:00,
2013-03-30 19:33:00,37.5,35.4,29.81,WSW,254,1.0,3.0,92,0.03,,---,0.40,VWS V13.01,2013-03-31 00:33:00,
2013-03-30 19:38:00,37.5,35.4,29.81,WSW,258,0.0,3.0,92,0.03,,---,0.40,VWS V13.01,2013-03-31 00:38:00,
2013-03-30 19:43:00,37.4,35.3,29.81,SSW,211,0.0,5.0,92,0.03,,---,0.40,VWS V13.01,2013-03-31 00:43:00,
2013-03-30 19:48:00,37.4,35.3,29.81,WSW,253,0.0,5.0,92,0.03,,---,0.40,VWS V13.01,2013-03-31 00:48:00,
2013-03-30 19:53:00,37.3,35.2,29.80,WSW,254,0.0,5.0,92,0.04,,---,0.41,VWS V13.01,2013-03-31 00:53:00,
2013-03-30 19:58:00,37.2,35.1,29.80,WSW,253,0.0,5.0,92,0.04,,---,0.41,VWS V13.01,2013-03-31 00:58:00,
2013-03-30 20:03:00,37.1,35.0,29.80,WSW,253,0.0,1.0,92,0.02,,---,0.41,VWS V13.01,2013-03-31 01:03:00,
2013-03-30 20:08:00,37.0,34.9,29.81,WSW,245,0.0,3.0,92,0.02,,---,0.41,VWS V13.01,2013-03-31 01:08:00,
2013-03-30 20:13:00,36.9,34.8,29.80,West,261,0.0,4.0,92,0.02,,---,0.41,VWS V13.01,2013-03-31 01:13:00,
2013-03-30 20:18:00,36.8,34.7,29.80,WSW,258,0.0,4.0,92,0.02,,---,0.41,VWS V13.01,2013-03-31 01:18:00,
2013-03-30 20:23:00,36.7,34.6,29.80,WSW,254,0.0,4.0,92,0.02,,---,0.41,VWS V13.01,2013-03-31 01:23:00,
2013-03-30 20:28:00,36.6,34.5,29.80,WSW,254,0.0,4.0,92,0.02,,---,0.42,VWS V13.01,2013-03-31 01:28:00,
2013-03-30 20:34:00,36.6,34.5,29.80,WSW,254,0.0,2.0,92,0.02,,---,0.42,VWS V13.01,2013-03-31 01:34:00,
2013-03-30 20:39:00,36.5,34.4,29.80,WSW,249,0.0,3.0,92,0.02,,---,0.42,VWS V13.01,2013-03-31 01:39:00,
2013-03-30 20:44:00,36.5,34.4,29.80,WSW,249,0.0,3.0,92,0.02,,---,0.42,VWS V13.01,2013-03-31 01:44:00,
2013-03-30 20:49:00,36.4,34.3,29.80,WSW,250,0.0,3.0,92,0.02,,---,0.42,VWS V13.01,2013-03-31 01:49:00,
2013-03-30 20:54:00,36.4,34.3,29.80,WSW,250,0.0,3.0,92,0.02,,---,0.42,VWS V13.01,2013-03-31 01:54:00,
2013-03-30 20:59:00,36.4,34.3,29.80,WNW,283,0.0,4.0,92,0.02,,---,0.42,VWS V13.01,2013-03-31 01:59:00,
2013-03-30 21:04:00,36.4,34.3,29.80,West,277,1.0,4.0,92,0.01,,---,0.42,VWS V13.01,2013-03-31 02:04:00,
2013-03-30 21:09:00,36.4,34.3,29.80,WSW,256,4.0,4.0,92,0.01,,---,0.42,VWS V13.01,2013-03-31 02:09:00,
2013-03-30 21:14:00,36.4,34.3,29.81,WSW,250,1.0,4.0,92,0.01,,---,0.42,VWS V13.01,2013-03-31 02:14:00,
2013-03-30 21:19:00,36.4,34.3,29.80,WSW,249,1.0,5.0,92,0.01,,---,0.42,VWS V13.01,2013-03-31 02:19:00,
2013-03-30 21:24:00,36.3,34.2,29.80,WSW,249,0.0,5.0,92,0.01,,---,0.42,VWS V13.01,2013-03-31 02:24:00,
2013-03-30 21:29:00,36.3,34.2,29.80,WNW,283,3.0,5.0,92,0.01,,---,0.42,VWS V13.01,2013-03-31 02:29:00,
2013-03-30 21:34:00,36.3,34.2,29.80,WNW,288,0.0,4.0,92,0.00,,---,0.42,VWS V13.01,2013-03-31 02:34:00,
2013-03-30 21:39:00,36.3,34.2,29.80,WSW,250,1.0,6.0,92,0.00,,---,0.42,VWS V13.01,2013-03-31 02:39:00,
2013-03-30 21:44:00,36.2,34.1,29.80,WSW,252,0.0,6.0,92,0.00,,---,0.42,VWS V13.01,2013-03-31 02:44:00,
2013-03-30 21:49:00,36.2,34.1,29.80,WSW,246,4.0,6.0,92,0.00,,---,0.42,VWS V13.01,2013-03-31 02:49:00,
2013-03-30 21:54:00,36.1,34.0,29.80,WSW,248,0.0,6.0,92,0.00,,---,0.42,VWS V13.01,2013-03-31 02:54:00,
2013-03-30 21:59:00,36.1,34.0,29.80,SW,229,2.0,6.0,92,0.00,,---,0.42,VWS V13.01,2013-03-31 02:59:00,
2013-03-30 22:04:00,36.1,34.3,29.80,SW,233,1.0,1.0,93,0.00,,---,0.42,VWS V13.01,2013-03-31 03:04:00,
2013-03-30 22:09:00,36.1,34.3,29.80,SW,219,3.0,3.0,93,0.01,,---,0.43,VWS V13.01,2013-03-31 03:09:00,
2013-03-30 22:14:00,36.1,34.3,29.80,WSW,249,0.0,4.0,93,0.01,,---,0.43,VWS V13.01,2013-03-31 03:14:00,
2013-03-30 22:19:00,36.0,34.2,29.80,WSW,249,1.0,4.0,93,0.01,,---,0.43,VWS V13.01,2013-03-31 03:19:00,
2013-03-30 22:24:00,36.0,34.2,29.80,WSW,250,0.0,4.0,93,0.01,,---,0.43,VWS V13.01,2013-03-31 03:24:00,
2013-03-30 22:29:00,35.9,34.1,29.79,West,264,2.0,4.0,93,0.01,,---,0.43,VWS V13.01,2013-03-31 03:29:00,
2013-03-30 22:34:00,35.9,34.1,29.79,West,269,0.0,2.0,93,0.01,,---,0.43,VWS V13.01,2013-03-31 03:34:00,
2013-03-30 22:39:00,35.8,33.7,29.79,West,267,0.0,2.0,92,0.01,,---,0.43,VWS V13.01,2013-03-31 03:39:00,
2013-03-30 22:44:00,35.7,33.6,29.78,SW,232,0.0,4.0,92,0.01,,---,0.43,VWS V13.01,2013-03-31 03:44:00,
2013-03-30 22:49:00,35.7,33.6,29.78,WSW,243,0.0,4.0,92,0.01,,---,0.43,VWS V13.01,2013-03-31 03:49:00,
2013-03-30 22:54:00,35.7,33.6,29.78,WSW,242,0.0,4.0,92,0.01,,---,0.43,VWS V13.01,2013-03-31 03:54:00,
2013-03-30 22:59:00,35.6,33.5,29.78,WSW,244,1.0,4.0,92,0.01,,---,0.43,VWS V13.01,2013-03-31 03:59:00,
2013-03-30 23:00:00,35.6,33.5,29.78,WSW,244,1.0,4.0,92,0.01,,---,0.43,VWS V13.01,2013-03-31 04:00:00,
2013-03-30 23:05:00,35.5,33.4,29.78,WSW,257,1.0,4.0,92,0.01,,---,0.43,VWS V13.01,2013-03-31 04:05:00,
2013-03-30 23:10:00,35.5,33.4,29.77,WSW,253,2.0,4.0,92,0.01,,---,0.43,VWS V13.01,2013-03-31 04:10:00,
2013-03-30 23:15:00,35.5,33.4,29.77,WSW,256,0.0,4.0,92,0.01,,---,0.43,VWS V13.01,2013-03-31 04:15:00,
2013-03-30 23:20:00,35.4,33.6,29.77,WSW,256,1.0,4.0,93,0.01,,---,0.43,VWS V13.01,2013-03-31 04:20:00,
2013-03-30 23:25:00,35.4,33.3,29.77,WSW,256,0.0,4.0,92,0.01,,---,0.43,VWS V13.01,2013-03-31 04:25:00,
2013-03-30 23:30:00,35.3,33.2,29.77,WSW,256,1.0,4.0,92,0.01,,---,0.43,VWS V13.01,2013-03-31 04:30:00,
2013-03-30 23:35:00,35.3,33.2,29.77,WNW,287,0.0,6.0,92,0.00,,---,0.43,VWS V13.01,2013-03-31 04:35:00,
2013-03-30 23:40:00,35.2,33.1,29.77,WSW,252,2.0,6.0,92,0.00,,---,0.43,VWS V13.01,2013-03-31 04:40:00,
2013-03-30 23:45:00,35.2,33.1,29.77,WSW,252,0.0,6.0,92,0.00,,---,0.43,VWS V13.01,2013-03-31 04:45:00,
2013-03-30 23:50:00,35.2,33.4,29.77,SSW,192,0.0,6.0,93,0.00,,---,0.43,VWS V13.01,2013-03-31 04:50:00,
2013-03-30 23:55:00,35.2,33.4,29.76,SW,232,0.0,6.0,93,0.00,,---,0.43,VWS V13.01,2013-03-31 04:55:00,